Location: Allos
(44.2333°N, 6.6333°E)
Time: 01:31:00
(UTC+00:00)

DX 1 - Pass Details

Date: 14 May 2021
Orbit: 618 x 631 km, 98.5° (Epoch: 24 June)

Event Time Altitude Azimuth Distance (km) Brightness Sun altitude
Rises 20:04:42 0° 359° (N) 2,910 ? -11.5°
Reaches altitude 10° 20:07:21 10° 344° (NNW) 1,997 ? -11.8°
Maximum altitude 20:10:31 20° 296° (WNW) 1,429 ? -12.3°
Drops below altitude 10° 20:13:41 10° 249° (WSW) 1,983 ? -12.7°
Sets 20:16:18 0° 232° (SW) 2,883 ? -13.0°
